Weather History for KCRG - November, 2012

Change the Weather History Date:

Thursday, November 8, 2012

  Actual Average Record
Temperature  
Mean Temperature 56 °F -  
Max Temperature 66 °F 72 °F 82 °F (2000)
Min Temperature 44 °F 54 °F 42 °F (2010)
Degree Days  
Heating Degree Days 9    
Growing Degree Days 6 (Base 50)    
Moisture  
Dew Point 42 °F    
Average Humidity 72    
Maximum Humidity 87    
Minimum Humidity 36    
Precipitation  
Precipitation 0.00 in - - ()
Sea Level Pressure  
Sea Level Pressure 30.11 in    
Wind  
Wind Speed 7 mph (NNW)    
Max Wind Speed 13 mph    
Max Gust Speed 17 mph    
Visibility 10 miles    
Events      
Averages and records for this station are not official NWS values.
T = Trace of Precipitation, MM = Missing Value Source: NWS Daily Summary

Daily Weather History Graph

Daily Weather History Graph

Search for Another Location

Airport or City:

Trip Planner

Search our weather history database for the weather conditions in past years. The results will help you decide how hot, cold, wet, or windy it might be!

Date:

Astronomy

Nov. 08, 2012 Rise Set
Actual Time 6:46 AM EST 5:32 PM EST
Civil Twilight 6:21 AM EST 5:58 PM EST
Nautical Twilight 5:52 AM EST 6:26 PM EST
Astronomical Twilight 5:24 AM EST 6:55 PM EST
Moon 1:04 AM EST (11/8) 1:51 PM EST (11/8)
Length of Visible Light 11h 36m
Length of Day
10h 46m
Waning Crescent, 33% of the Moon is Illuminated
Nov 8
Waning Crescent
Nov 13
New
Nov 20
First Quarter
Nov 28
Full
Dec 6
Last Quarter

Hourly Weather History & Observations

Time (EST) Temp. Windchill Dew Point Humidity Pressure Visibility Wind Dir Wind Speed Gust Speed Precip Events Conditions
12:53 AM 48.9 °F - 45.0 °F 86% 30.01 in 10.0 mi WNW 3.5 mph - N/A   Clear
1:53 AM 48.9 °F - 44.1 °F 83% 30.01 in 10.0 mi NW 6.9 mph - N/A   Clear
2:53 AM 48.9 °F - 44.1 °F 83% 30.02 in 10.0 mi NW 11.5 mph - N/A   Clear
3:53 AM 48.9 °F - 43.0 °F 80% 30.03 in 10.0 mi NNW 12.7 mph - N/A   Clear
4:53 AM 48.0 °F - 43.0 °F 83% 30.05 in 10.0 mi NNW 10.4 mph - N/A   Clear
5:53 AM 48.0 °F - 43.0 °F 83% 30.06 in 10.0 mi North 12.7 mph 17.3 mph N/A   Partly Cloudy
6:30 AM 46.4 °F 41.1 °F 42.8 °F 87% 30.08 in 10.0 mi NNW 11.5 mph - N/A   Partly Cloudy
6:53 AM 46.9 °F - 43.0 °F 86% 30.09 in 9.0 mi NNW 11.5 mph - N/A   Partly Cloudy
7:00 AM 46.4 °F 41.5 °F 42.8 °F 87% 30.09 in 8.0 mi NNW 10.4 mph - N/A   Mostly Cloudy
7:53 AM 48.0 °F - 43.0 °F 83% 30.12 in 9.0 mi NNW 9.2 mph - N/A   Clear
8:17 AM 48.2 °F - 44.6 °F 87% 30.12 in 9.0 mi NNW 10.4 mph - N/A   Partly Cloudy
8:53 AM 50.0 °F - 44.1 °F 80% 30.14 in 10.0 mi North 8.1 mph - N/A   Clear
9:53 AM 55.0 °F - 44.1 °F 67% 30.15 in 10.0 mi Variable 6.9 mph - N/A   Clear
10:53 AM 55.4 °F - 44.1 °F 66% 30.16 in 10.0 mi NNW 9.2 mph - N/A   Clear
11:53 AM 62.1 °F - 41.0 °F 46% 30.15 in 10.0 mi NNW 9.2 mph - N/A   Clear
12:53 PM 64.0 °F - 37.9 °F 38% 30.13 in 10.0 mi North 9.2 mph 16.1 mph N/A   Clear
1:53 PM 64.9 °F - 37.9 °F 37% 30.11 in 10.0 mi North 5.8 mph - N/A   Clear
2:53 PM 66.0 °F - 37.9 °F 36% 30.10 in 10.0 mi NNE 10.4 mph - N/A   Clear
3:53 PM 66.0 °F - 39.9 °F 38% 30.11 in 10.0 mi North 6.9 mph - N/A   Clear
4:53 PM 64.0 °F - 39.9 °F 41% 30.11 in 10.0 mi NE 3.5 mph - N/A   Clear
5:53 PM 53.1 °F - 46.0 °F 77% 30.13 in 10.0 mi Calm Calm - N/A   Clear
6:53 PM 51.1 °F - 45.0 °F 80% 30.15 in 10.0 mi Calm Calm - N/A   Clear
7:53 PM 50.0 °F - 43.0 °F 77% 30.17 in 10.0 mi Calm Calm - N/A   Clear
8:53 PM 46.9 °F - 42.1 °F 83% 30.17 in 10.0 mi Calm Calm - N/A   Clear
9:53 PM 46.0 °F - 41.0 °F 83% 30.19 in 10.0 mi Calm Calm - N/A   Clear
10:53 PM 46.0 °F - 41.0 °F 83% 30.19 in 10.0 mi Calm Calm - N/A   Clear
11:53 PM 44.1 °F - 39.9 °F 85% 30.19 in 10.0 mi Calm Calm - N/A   Clear